Regional Weather Roundup
Issued by NWS Cleveland, OH

Home | Current Version | Previous Version | Graphics & Text | Print | Product List | Glossary On
Versions: 1 2 3 4 5 6 7 8 9 10 11 12 13 14 15 16 17 18 19 20 21 22 23 24 25 26 27 28 29 30 31 32 33 34 35 36 37 38 39 40 41 42 43 44 45 46 47 48 49 50
000
ASUS41 KCLE 192312
RWRCLE
OHIO REGIONAL WEATHER ROUNDUP
NATIONAL WEATHER SERVICE WILMINGTON, OH
700 PM EDT THU OCT 19 2017

NOTE: "FAIR" INDICATES FEW OR NO CLOUDS BELOW 12,000 FEET WITH NO
SIGNIFICANT WEATHER AND/OR OBSTRUCTIONS TO VISIBILITY.

OHZ001>008-015>018-024>027-034-035-043-044-200000-
   NORTHWEST OHIO

CITY           SKY/WX    TMP DP  RH WIND       PRES   REMARKS
DEFIANCE       FAIR      65  39  38 CALM      30.16R
FINDLAY        FAIR      65  49  56 W7        30.15R
TOLEDO EXPRESS FAIR      64  43  46 W6        30.14R
TOLEDO EXEC    FAIR      63  40  42 W8        30.15R
LIMA           FAIR      64  51  62 SW6       30.17R
$$

OHZ009>014-019>023-028>033-038-089-200000-
   NORTHEAST OHIO

CITY           SKY/WX    TMP DP  RH WIND       PRES   REMARKS
CLE-HOPKINS    FAIR      66  50  56 W9        30.14R
CLE-LAKEFRONT  FAIR      65  58  78 W12       30.12R
CUY CO. ARPT   PTCLDY    66  55  68 NW14      30.13R
LORAIN-ELYRIA  FAIR      66  45  46 W6        30.14R
ASHTABULA      FAIR      66  50  56 NW10      30.13R
AKRON-CANTON   FAIR      64  48  56 SW7       30.15R
WOOSTER        LGT RAIN  55  48  77 W3        30.15R
MANSFIELD      FAIR      66  48  52 W5        30.16R
YOUNGSTOWN     FAIR      65  48  54 SW8       30.13R
$$

OHZ042-051>053-060>062-070>072-077>081-200000-
  SOUTHWEST OHIO

CITY           SKY/WX    TMP DP  RH WIND       PRES   REMARKS
CINC-COVINGTON FAIR      67  52  58 SW6       30.20S
CINC-LUNKEN    FAIR      64  53  67 S6        30.20S
HAMILTON       FAIR      66  52  60 CALM      30.20R
DAYTON         FAIR      63  52  67 W8        30.19R
WRIGHT-PAT AFB FAIR      64  50  62 SW8       30.18R
DAYTON GENERAL FAIR      68  49  50 SW6       30.19R
WILMINGTON     FAIR      65  51  60 SW6       30.20R
$$

OHZ036-037-039>041-045>050-054>059-063>069-073>076-082>088-200000-
  CENTRAL AND SOUTHEAST OHIO

CITY           SKY/WX    TMP DP  RH WIND       PRES   REMARKS
COLUMBUS       FAIR      69  49  48 SW9       30.17R
OSU AIRPORT    FAIR      68  51  54 SW8       30.17R
BOLTON FIELD   CLEAR     66  50  55 SW7       30.19R
RICKENBACK AFB FAIR      65  49  56 SW6       30.18R
NEWARK         FAIR      68  47  46 SW7       30.17R
MARION         FAIR      68  46  45 W7        30.16S
LANCASTER      FAIR      65  49  56 SW6       30.19R
ZANESVILLE     FAIR      65  49  56 S5        30.18R
NEW PHILLY     FAIR      67  49  52 VRB3      30.16S
$$



USA.gov is the U.S. government's official web portal to all federal, state and local government web resources and services.